Flag for U.S.A. Weather past 2 weeks in Victoria, Texas, U.S.A.

Now
79 °F

Mostly cloudy.


Feels Like: 83 °F
Forecast: 76 / 90 °F
Wind: No wind

Location: Victoria Regional Airport

Current Time: Sep 18, 2014 at 5:45:53 AM

Latest Report: Sep 18, 2014 at 4:51 AM


Visibility: 7 mi

Pressure: 29.85 "Hg

Humidity: 94%

Dew point: 77 °F

Location of VictoriaLocation

Historic Weather in Victoria — Graph

°F

Victoria temperature yesterday

Maximum temperature yesterday: 95 °F (at 2:51 PM)
Minimum temperature yesterday: 76 °F (at 4:03 AM)
Average temperature yesterday: 83 °F

Past Weeks' High & Low Weather Summary

 TemperatureHumidityPressure
High99 °F (Sep 11, 2:51 PM)97% (Sep 9, 7:51 AM)30.18 "Hg (Sep 9, 7:51 AM)
Low68 °F (Sep 13, 7:51 AM)41% (Sep 8, 3:51 PM)29.81 "Hg (Sep 10, 4:51 PM)
Average82 °F78%29.98 "Hg
* Reported Sep 3 3:51 AM — Sep 18 3:51 AM, Victoria, Weather by CustomWeather, © 2014

Note: Actual official high and low records may vary slightly from our data, if they occured in-between our weather recording intervals... More about our weather records

Advertising

Victoria weather history for previous 24 hours

 ConditionsComfort  
Time TempWeatherWind HumidityBarometerVisibility
3:51 AM
Sep 18
79 °FPassing clouds.5 mph94%29.85 "Hg10 mi
2:51 AM79 °FClear.5 mph94%29.86 "Hg9 mi
1:51 AM79 °FFog.3 mph94%29.87 "Hg6 mi
12:51 AM80 °FPassing clouds.3 mph94%29.88 "Hg10 mi
11:51 PM
Sep 17
80 °FClear.5 mph94%29.88 "Hg10 mi
10:51 PM81 °FClear.7 mph91%29.90 "Hg10 mi
9:51 PM81 °FClear.7 mph91%29.90 "Hg10 mi
8:51 PM81 °FPassing clouds.No wind91%29.89 "Hg10 mi
7:51 PM80 °FThundershowers. Fog.7 mph90%29.87 "Hg6 mi
6:51 PM81 °FThunderstorms. Mostly cloudy.12 mph88%29.86 "Hg9 mi
5:51 PM85 °FThundershowers. Partly sunny.7 mph72%29.83 "Hg10 mi
4:51 PM93 °FBroken clouds.12 mph50%29.83 "Hg10 mi
3:51 PM94 °FMostly cloudy.10 mph49%29.85 "Hg10 mi
2:51 PM95 °FScattered clouds.14 mph47%29.86 "Hg10 mi
1:51 PM94 °FSunny.7 mph49%29.89 "Hg10 mi
12:51 PM93 °FScattered clouds.10 mph52%29.92 "Hg10 mi
11:58 AM91 °FScattered clouds.9 mph54%29.95 "Hg10 mi
10:51 AM85 °FScattered clouds.8 mph75%29.96 "Hg10 mi
9:52 AM85 °FScattered clouds.10 mph77%29.97 "Hg10 mi
8:55 AM81 °FScattered clouds.No wind91%29.96 "Hg10 mi
7:51 AM78 °FFog.No wind93%29.95 "Hg3 mi
7:02 AM76 °FFog.No wind97%29.94 "Hg3 mi
6:58 AM77 °FFog.No wind94%29.94 "Hg0 mi
5:51 AM78 °FLight rain. Partly cloudy.3 mph93%29.93 "Hg7 mi
Weather by CustomWeather, © 2014

See weather overviewHow to use our weather pages